USA 40 R/B DEB, 23373

Orbit data source: Space-Track

USA 40 R/B DEB, 23373 is space debris originally from a launch on Tue, 08 Aug 1989 UTC launched from the Air Force Eastern Test Range (AFETR). Debris objects in space refer to the collection of defunct objects orbiting the Earth. Examples of debris include non-operational satellites, rocket bodies, and fragments generated from explosions, collisions, or faulty payload assembly.

Loading next visibility...
Identifier
23373, 1989-061AV
Orbit
Active
Country
Flag of USUS
Related business
Manufacturer
Unknown
Mission
Spacecraft
Bus & Motor
Unknown
Mass
Unknown
Launch date (UTC)
1989-08-08 (37 years ago)
Launch vehicle
Unknown
Launch site
Air Force Eastern Test Range (AFETR)
Object type
Payload
Rocket body
Debris
Shape & HBR
Unknown shape, 0.1 m
Radar Cross Section
Small (<0.1 m²)

Expand to show TLE details & history
Last TLE update: 13 hours ago

TLE from 13 hours ago
0 USA 40 R/B DEB
1 23373U 89061AV  26094.07953466  .00004633  00000-0  56425-2 0  9993
2 23373  57.0079 345.5730 3014809 174.8784 189.2125  8.74354785224983
Epoch: 2026-04-04T01:54Z
TLE epoch observation values (Epoch: 2026-04-04T01:54:31.794Z)
Latitude
0.00005°
Longitude
124.5361°
Altitude
6,553.408 km
Speed
4.649 km/s
True Right ascension
23h 02m 17s
True Declination
0° 00' 00"
Sunlit
Object was in daylight at epoch
Visualization orbit readout
Latitude
Unknown
Longitude
Unknown
Altitude
Unknown
Speed
Unknown
Apparent Right ascension
Unknown
Apparent Declination
Unknown
Sunlit
N/A
Visualization observer readout
Local Sidereal Time
20:50:03
Azimuth
Unknown
Elevation
Unknown
Doppler factor
Unknown
Orbital elements
Apogee altitude
6,574.826 km
Perigee altitude
573.861 km
Semi-major axis
9,952.481 km
Eccentricity
0.30148
Inclination
57.0079°
RAAN
345.573°
Arg. of periapsis
174.8784°
True anomaly
185.19185°
Mean anomaly
189.2125°
Eccentric anomaly
187.08265°
Mean motion
2.18598 °/min
Orbital period
164.69 mins
BSTAR
0.0056425
Loading maneuver chart data...
Computing Atmospheric mass density...
Loading historical data...
Loading historical data...
Loading historical data...
Loading historical data...
Loading historical data...
Loading historical data...
Loading historical data...

Documentation

Showing up to 5 results
|